Regional Weather Roundup
Issued by NWS

Home | Current Version | Previous Version | Text Only | Print | Product List | Glossary On
Versions: 1 2 3 4 5 6 7 8 9 10 11 12 13 14 15 16 17 18 19 20 21 22 23 24 25 26 27 28 29 30 31 32 33 34 35 36 37 38 39 40 41 42 43 44 45 46 47 48 49 50
000
ASUS45 KCYS 301710
RWRWY

WYOMING REGIONAL WEATHER ROUNDUP
NATIONAL WEATHER SERVICE CHEYENNE WY
1100 AM MDT SAT APR 30 2016

NOTE:  "FAIR" INDICATES FEW OR NO CLOUDS BELOW 12,000 FEET
WITH NO SIGNIFICANT WEATHER AND/OR OBSTRUCTIONS TO VISIBILITY.

WYZ001-301800-
YELLOWSTONE NATIONAL PARK

CITY           SKY/WX    TMP DP  RH WIND       PRES   REMARKS
LK YELLOWSTONE   N/A     36  22  56 VRB5      30.09R WCI  32
W YELLOWSTONE  NOT AVBL

$$
WYZ002>013-054>058-071-098>099-301800-
NORTHERN WYOMING

CITY           SKY/WX    TMP DP  RH WIND       PRES   REMARKS
JACKSON        NOT AVBL
CODY           CLOUDY    41  32  70 NW8       30.11S
GREYBULL       PTSUNNY   53  33  46 NW9       30.06R
WORLAND        PTSUNNY   49  37  63 NW8       30.08R
SHERIDAN       CLOUDY    42  36  79 CALM      30.18R
BUFFALO          N/A    N/A N/A N/A MISG      30.16R
GILLETTE       PTSUNNY   43  36  76 NE18      30.12S
HULETT         CLOUDY    43  36  75 NE12G21   30.13S
NEWCASTLE      CLOUDY    41  30  65 NE12      30.10R

$$
WYZ014>020-022>026-101>103-301800-
CENTRAL WYOMING

CITY           SKY/WX    TMP DP  RH WIND       PRES   REMARKS
BIG PINEY      PTSUNNY   40  31  70 SW5       30.03S
PINEDALE       PTSUNNY   37  32  81 CALM      30.03S
DUBOIS         CLOUDY    39  32  75 E9        30.05S WCI  33
LANDER         LGT RAIN  38  35  89 NW7       30.07R WCI  33
RIVERTON       LGT RAIN  39  35  86 N14       30.09R WCI  31
CASPER         LGT SNOW  35  32  88 NE16      30.06R FOG     WCI  25
DOUGLAS        LGT SNOW  35  32  88 NE9       30.08R FOG     WCI  28

$$
WYZ021-027>030-104>119-301800-
SOUTHERN WYOMING

CITY           SKY/WX    TMP DP  RH WIND       PRES   REMARKS
EVANSTON       CLOUDY    39  27  62 E18G25    30.01R WCI  30
KEMMERER         N/A     37  30  75 E7        30.04R WCI  32
FORT BRIDGER   LGT SNOW  36  36 100 SE10      30.06S WCI  28
ROCK SPRINGS   CLOUDY    36  31  82 NE17G23   30.03R WCI  26
DIXON          PTSUNNY   41  24  51 NE14G25   29.97S
RAWLINS        CLOUDY    32  27  81 NE14      30.02R HAZE    WCI  22
SARATOGA       PTSUNNY   32  30  93 N9        30.00R WCI  24
LARAMIE        LGT SNOW  27  25  92 N15       29.97R VSB 1   WCI  15
CHEYENNE       LGT SNOW  31  28  89 N20G26    29.96R VSB 3/4 WCI  19
TORRINGTON     MIX PCPN  35  33  92 N10       30.01R WCI  27
PINE BLUFFS    LGT SNOW  32  32 100 N20G28    29.95S WCI  20

$$



USA.gov is the U.S. government's official web portal to all federal, state and local government web resources and services.